Погода в Нижних Абакасах

Россия / Чувашская Республика     55°24′29″N   47°05′02″E
темп.,
°C
ветер,
м/с
пор.,
м/с
влажн.,
%
обл.,
%
осадки,
мм/ч
давл.,
гПа
погр.,
м
15 апреля, чт
чт1500:00+11ююв37860 0.0 1022109
03:00+10ююв22870 0.0 102120
06:00+10ююв338933 0.0 102051
09:00+15ю246777 0.0 1020408
12:00+18ююз2247100 0.0 10191735
15:00+19з114092 0.0 10181973
18:00+16ссз225681 0.0 101825
21:00+15ссв225566 0.0 101911
16 апреля, пт
пт1600:00+10ссв49902 0.0 1019181
03:00+8св599760 0.0 1021262
06:00+8св5890100 0.0 1021423
09:00+9всв6885100 0.0 1022555
12:00+10св677796 0.0 1023694
15:00+12св676956 0.0 1023853
18:00+10св610745 0.0 1023473
21:00+7св511765 0.0 1024306
17 апреля, сб
сб1700:00+5св511795 0.0 1025279
03:00+4св411825 0.0 1025253
06:00+4св5118025 0.0 1026316
09:00+8всв795613 0.0 1026620
12:00+12всв78411 0.0 10261110
15:00+12всв67330 0.0 10251328
18:00+10всв48490 0.0 1025225
21:00+5св411660 0.0 1026211
18 апреля, вс
вс1800:00+4св39720 0.0 1026162
03:00+2ссв38800 0.0 1026138
06:00+2ссв38790 0.0 1027196
09:00+8ссв57560 0.0 1026705
12:00+11ссв67455 0.0 10261486
15:00+12ссв784481 0.0 10262028
18:00+7св710655 0.0 10291016
21:00+3св410715 0.0 1031293
19 апреля, пн
пн1900:00+1св410625 0.0 1033277
03:00−1всв310675 0.0 1035236
06:000всв48595 0.0 1037339
09:00+4всв67375 0.0 10371350
12:00+6в56365 0.0 10371619
15:00+7в45365 0.0 10371699
18:00+5вюв35465 0.0 1037169
21:00+1юв35524 0.0 103877